Time,TemperatureF,DewpointF,PressureIn,WindDirection,WindDirectionDegrees,WindSpeedMPH,WindSpeedGustMPH,Humidity,HourlyPrecipIn,Conditions,Clouds,dailyrainin,SoftwareType,DateUTC
2013-02-12 00:00:00,69.8,51.4,30.12,North,0,0.0,0.0,52,0.00,CLR,BKN,0.00,WeatherDisplay:10.37,2013-02-12 05:00:00,
2013-02-12 00:01:00,69.8,51.4,30.12,North,0,0.0,0.0,52,0.00,CLR,BKN,0.00,WeatherDisplay:10.37,2013-02-12 05:01:00,
2013-02-12 00:06:00,69.8,51.4,30.12,North,0,0.0,0.0,52,0.00,CLR,BKN,0.00,WeatherDisplay:10.37,2013-02-12 05:06:00,
2013-02-12 00:11:00,69.8,51.4,30.12,North,0,0.0,0.0,52,0.00,CLR,BKN,0.00,WeatherDisplay:10.37,2013-02-12 05:11:00,
2013-02-12 00:16:00,69.6,51.2,30.12,North,0,0.0,0.0,52,0.00,CLR,BKN,0.00,WeatherDisplay:10.37,2013-02-12 05:16:00,
2013-02-12 00:21:00,69.6,51.2,30.12,North,0,0.0,0.0,52,0.00,CLR,BKN,0.00,WeatherDisplay:10.37,2013-02-12 05:21:00,
2013-02-12 00:26:00,69.6,51.2,30.12,North,0,0.0,0.0,52,0.00,CLR,BKN,0.00,WeatherDisplay:10.37,2013-02-12 05:26:00,
2013-02-12 00:31:00,69.4,51.0,30.12,North,0,0.0,0.0,52,0.00,CLR,BKN,0.00,WeatherDisplay:10.37,2013-02-12 05:31:00,
2013-02-12 00:36:00,69.4,51.6,30.12,North,0,0.0,0.0,53,0.00,CLR,BKN,0.00,WeatherDisplay:10.37,2013-02-12 05:36:00,
2013-02-12 00:41:00,69.4,51.6,30.12,North,0,0.0,0.0,53,0.00,CLR,BKN,0.00,WeatherDisplay:10.37,2013-02-12 05:41:00,
2013-02-12 00:46:00,69.3,51.4,30.12,North,0,0.0,0.0,53,0.00,CLR,BKN,0.00,WeatherDisplay:10.37,2013-02-12 05:46:00,
2013-02-12 00:51:00,69.3,51.9,30.12,North,0,0.0,0.0,54,0.00,CLR,BKN,0.00,WeatherDisplay:10.37,2013-02-12 05:51:00,
2013-02-12 00:56:00,69.3,51.9,30.12,North,0,0.0,0.0,54,0.00,CLR,BKN,0.00,WeatherDisplay:10.37,2013-02-12 05:56:00,
2013-02-12 01:01:00,69.3,52.4,30.15,North,0,0.0,0.0,55,0.00,CLR,BKN,0.00,WeatherDisplay:10.37,2013-02-12 06:01:00,
2013-02-12 01:06:00,69.1,52.2,30.15,North,0,0.0,0.0,55,0.00,CLR,BKN,0.00,WeatherDisplay:10.37,2013-02-12 06:06:00,
2013-02-12 01:11:00,69.1,52.2,30.15,North,0,0.0,0.0,55,0.00,CLR,BKN,0.00,WeatherDisplay:10.37,2013-02-12 06:11:00,
2013-02-12 01:16:00,68.9,52.1,30.12,North,0,0.0,0.0,55,0.00,CLR,BKN,0.00,WeatherDisplay:10.37,2013-02-12 06:16:00,
2013-02-12 01:21:00,68.7,52.4,30.12,North,0,0.0,0.0,56,0.00,CLR,BKN,0.00,WeatherDisplay:10.37,2013-02-12 06:21:00,
2013-02-12 01:26:00,68.7,52.4,30.12,North,0,0.0,0.0,56,0.00,CLR,BKN,0.00,WeatherDisplay:10.37,2013-02-12 06:26:00,
2013-02-12 01:31:00,68.7,53.3,30.12,North,0,0.0,0.0,58,0.00,CLR,BKN,0.00,WeatherDisplay:10.37,2013-02-12 06:31:00,
2013-02-12 01:36:00,68.7,53.8,30.12,North,0,0.0,0.0,59,0.00,CLR,BKN,0.00,WeatherDisplay:10.37,2013-02-12 06:36:00,
2013-02-12 01:41:00,68.7,53.8,30.12,North,0,0.0,0.0,59,0.00,CLR,BKN,0.00,WeatherDisplay:10.37,2013-02-12 06:41:00,
2013-02-12 01:46:00,68.5,53.6,30.12,North,0,0.0,0.0,59,0.00,CLR,BKN,0.00,WeatherDisplay:10.37,2013-02-12 06:46:00,
2013-02-12 01:51:00,68.5,54.1,30.12,North,0,0.0,0.0,60,0.00,CLR,BKN,0.00,WeatherDisplay:10.37,2013-02-12 06:51:00,
2013-02-12 01:56:00,68.5,54.1,30.12,North,0,0.0,0.0,60,0.00,CLR,BKN,0.00,WeatherDisplay:10.37,2013-02-12 06:56:00,
2013-02-12 02:01:00,68.4,54.4,30.12,North,0,0.0,0.0,61,0.00,CLR,BKN,0.00,WeatherDisplay:10.37,2013-02-12 07:01:00,
2013-02-12 02:06:00,68.4,54.4,30.12,North,0,0.0,0.0,61,0.00,CLR,BKN,0.00,WeatherDisplay:10.37,2013-02-12 07:06:00,
2013-02-12 02:11:00,68.4,54.4,30.12,North,0,0.0,0.0,61,0.00,CLR,BKN,0.00,WeatherDisplay:10.37,2013-02-12 07:11:00,
2013-02-12 02:16:00,68.2,54.2,30.12,North,0,0.0,0.0,61,0.00,CLR,BKN,0.00,WeatherDisplay:10.37,2013-02-12 07:16:00,
2013-02-12 02:21:00,68.2,54.7,30.12,North,0,0.0,0.0,62,0.00,CLR,BKN,0.00,WeatherDisplay:10.37,2013-02-12 07:21:00,
2013-02-12 02:26:00,68.2,54.7,30.12,North,0,0.0,0.0,62,0.00,CLR,BKN,0.00,WeatherDisplay:10.37,2013-02-12 07:26:00,
2013-02-12 02:31:00,68.0,54.5,30.09,North,0,0.0,0.0,62,0.00,CLR,BKN,0.00,WeatherDisplay:10.37,2013-02-12 07:31:00,
2013-02-12 02:36:00,68.0,54.5,30.09,North,0,0.0,0.0,62,0.00,CLR,BKN,0.00,WeatherDisplay:10.37,2013-02-12 07:36:00,
2013-02-12 02:41:00,68.0,54.9,30.09,North,0,0.0,0.0,63,0.00,CLR,BKN,0.00,WeatherDisplay:10.37,2013-02-12 07:41:00,
2013-02-12 02:46:00,67.8,55.2,30.09,North,0,0.0,0.0,64,0.00,CLR,BKN,0.00,WeatherDisplay:10.37,2013-02-12 07:46:00,
2013-02-12 02:51:00,67.8,55.2,30.09,North,0,0.0,0.0,64,0.00,CLR,BKN,0.00,WeatherDisplay:10.37,2013-02-12 07:51:00,
2013-02-12 02:56:00,67.6,55.0,30.09,North,0,0.0,0.0,64,0.00,CLR,BKN,0.00,WeatherDisplay:10.37,2013-02-12 07:56:00,
2013-02-12 03:01:00,67.5,54.9,30.09,North,0,0.0,0.0,64,0.00,CLR,BKN,0.00,WeatherDisplay:10.37,2013-02-12 08:01:00,
2013-02-12 03:06:00,67.5,54.9,30.09,North,0,0.0,0.0,64,0.00,CLR,BKN,0.00,WeatherDisplay:10.37,2013-02-12 08:06:00,
2013-02-12 03:11:00,67.5,55.3,30.09,North,0,0.0,0.0,65,0.00,CLR,BKN,0.00,WeatherDisplay:10.37,2013-02-12 08:11:00,
2013-02-12 03:16:00,67.3,55.5,30.09,North,0,0.0,0.0,66,0.00,CLR,BKN,0.00,WeatherDisplay:10.37,2013-02-12 08:16:00,
2013-02-12 03:21:00,67.3,56.4,30.09,North,0,0.0,0.0,68,0.00,CLR,BKN,0.00,WeatherDisplay:10.37,2013-02-12 08:21:00,
2013-02-12 03:26:00,67.3,57.2,30.09,North,0,0.0,0.0,70,0.00,CLR,BKN,0.00,WeatherDisplay:10.37,2013-02-12 08:26:00,
2013-02-12 03:31:00,67.5,57.7,30.09,North,0,0.0,0.0,71,0.00,CLR,BKN,0.00,WeatherDisplay:10.37,2013-02-12 08:31:00,
2013-02-12 03:36:00,67.5,57.7,30.09,North,0,0.0,0.0,71,0.00,CLR,BKN,0.00,WeatherDisplay:10.37,2013-02-12 08:36:00,
2013-02-12 03:41:00,67.5,58.1,30.09,North,0,0.0,0.0,72,0.00,CLR,BKN,0.00,WeatherDisplay:10.37,2013-02-12 08:41:00,
2013-02-12 03:46:00,67.5,58.5,30.09,North,0,0.0,0.0,73,0.00,CLR,BKN,0.00,WeatherDisplay:10.37,2013-02-12 08:46:00,
2013-02-12 03:51:00,67.5,58.1,30.09,North,0,0.0,0.0,72,0.00,CLR,BKN,0.00,WeatherDisplay:10.37,2013-02-12 08:51:00,
2013-02-12 03:56:00,67.5,58.5,30.09,North,0,0.0,0.0,73,0.00,CLR,BKN,0.00,WeatherDisplay:10.37,2013-02-12 08:56:00,
2013-02-12 04:01:00,67.5,58.5,30.09,North,0,0.0,0.0,73,0.00,CLR,BKN,0.00,WeatherDisplay:10.37,2013-02-12 09:01:00,
2013-02-12 04:06:00,67.5,58.9,30.09,North,0,0.0,0.0,74,0.00,CLR,BKN,0.00,WeatherDisplay:10.37,2013-02-12 09:06:00,
2013-02-12 04:11:00,67.5,59.3,30.09,North,0,0.0,0.0,75,0.00,CLR,BKN,0.00,WeatherDisplay:10.37,2013-02-12 09:11:00,
2013-02-12 04:16:00,67.5,59.3,30.09,North,0,0.0,0.0,75,0.00,CLR,BKN,0.00,WeatherDisplay:10.37,2013-02-12 09:16:00,
2013-02-12 04:21:00,67.5,59.3,30.09,North,0,0.0,0.0,75,0.00,CLR,BKN,0.00,WeatherDisplay:10.37,2013-02-12 09:21:00,
2013-02-12 04:26:00,67.5,59.3,30.09,North,0,0.0,0.0,75,0.00,CLR,BKN,0.00,WeatherDisplay:10.37,2013-02-12 09:26:00,
2013-02-12 04:31:00,67.5,59.3,30.09,North,0,0.0,0.0,75,0.00,CLR,BKN,0.00,WeatherDisplay:10.37,2013-02-12 09:31:00,
2013-02-12 04:36:00,67.5,59.6,30.09,North,0,0.0,0.0,76,0.00,CLR,BKN,0.00,WeatherDisplay:10.37,2013-02-12 09:36:00,
2013-02-12 04:41:00,67.5,59.6,30.09,North,0,0.0,0.0,76,0.00,CLR,BKN,0.00,WeatherDisplay:10.37,2013-02-12 09:41:00,
2013-02-12 04:46:00,67.5,60.0,30.09,North,0,0.0,0.0,77,0.00,CLR,BKN,0.00,WeatherDisplay:10.37,2013-02-12 09:46:00,
2013-02-12 04:51:00,67.5,60.0,30.09,North,0,0.0,0.0,77,0.00,CLR,BKN,0.00,WeatherDisplay:10.37,2013-02-12 09:51:00,
2013-02-12 04:56:00,67.5,60.4,30.09,North,0,0.0,0.0,78,0.00,CLR,BKN,0.00,WeatherDisplay:10.37,2013-02-12 09:56:00,
2013-02-12 05:01:00,67.5,60.4,30.09,North,0,0.0,0.0,78,0.00,CLR,BKN,0.00,WeatherDisplay:10.37,2013-02-12 10:01:00,
2013-02-12 05:06:00,67.5,60.7,30.09,North,0,0.0,0.0,79,0.00,CLR,BKN,0.00,WeatherDisplay:10.37,2013-02-12 10:06:00,
2013-02-12 05:11:00,67.5,60.7,30.09,North,0,0.0,0.0,79,0.00,CLR,BKN,0.00,WeatherDisplay:10.37,2013-02-12 10:11:00,
2013-02-12 05:16:00,67.5,60.7,30.06,North,0,0.0,0.0,79,0.00,CLR,BKN,0.00,WeatherDisplay:10.37,2013-02-12 10:16:00,
2013-02-12 05:21:00,67.5,60.7,30.06,North,0,0.0,0.0,79,0.00,CLR,BKN,0.00,WeatherDisplay:10.37,2013-02-12 10:21:00,
2013-02-12 05:26:00,67.6,61.2,30.06,North,0,0.0,0.0,80,0.00,CLR,BKN,0.00,WeatherDisplay:10.37,2013-02-12 10:26:00,
2013-02-12 05:31:00,67.6,61.2,30.06,North,0,0.0,0.0,80,0.00,CLR,BKN,0.00,WeatherDisplay:10.37,2013-02-12 10:31:00,
2013-02-12 05:36:00,67.6,61.2,30.06,North,0,0.0,0.0,80,0.00,CLR,BKN,0.00,WeatherDisplay:10.37,2013-02-12 10:36:00,
2013-02-12 05:41:00,67.6,61.6,30.06,North,0,0.0,0.0,81,0.00,CLR,BKN,0.00,WeatherDisplay:10.37,2013-02-12 10:41:00,
2013-02-12 05:46:00,67.6,61.6,30.09,North,0,0.0,0.0,81,0.00,CLR,BKN,0.00,WeatherDisplay:10.37,2013-02-12 10:46:00,
2013-02-12 05:51:00,67.8,61.8,30.09,North,0,0.0,0.0,81,0.00,CLR,BKN,0.00,WeatherDisplay:10.37,2013-02-12 10:51:00,
2013-02-12 05:56:00,67.8,61.8,30.09,North,0,0.0,0.0,81,0.00,CLR,BKN,0.00,WeatherDisplay:10.37,2013-02-12 10:56:00,
2013-02-12 06:01:00,67.8,61.8,30.06,North,0,0.0,0.0,81,0.00,CLR,BKN,0.00,WeatherDisplay:10.37,2013-02-12 11:01:00,
2013-02-12 06:06:00,67.8,61.8,30.06,North,0,0.0,0.0,81,0.00,CLR,BKN,0.00,WeatherDisplay:10.37,2013-02-12 11:06:00,
2013-02-12 06:11:00,67.8,61.8,30.06,North,0,0.0,0.0,81,0.00,CLR,BKN,0.00,WeatherDisplay:10.37,2013-02-12 11:11:00,
2013-02-12 06:16:00,67.8,61.8,30.09,North,0,0.0,0.0,81,0.00,CLR,BKN,0.00,WeatherDisplay:10.37,2013-02-12 11:16:00,
2013-02-12 06:21:00,67.6,61.6,30.09,North,0,0.0,0.0,81,0.00,CLR,BKN,0.00,WeatherDisplay:10.37,2013-02-12 11:21:00,
2013-02-12 06:26:00,67.6,61.6,30.09,North,0,0.0,0.0,81,0.00,CLR,BKN,0.00,WeatherDisplay:10.37,2013-02-12 11:26:00,
2013-02-12 06:31:00,67.6,61.6,30.09,North,0,0.0,0.0,81,0.00,CLR,BKN,0.00,WeatherDisplay:10.37,2013-02-12 11:31:00,
2013-02-12 06:36:00,67.6,61.9,30.09,North,0,0.0,0.0,82,0.00,CLR,BKN,0.00,WeatherDisplay:10.37,2013-02-12 11:36:00,
2013-02-12 06:41:00,67.6,61.9,30.09,North,0,0.0,0.0,82,0.00,CLR,BKN,0.00,WeatherDisplay:10.37,2013-02-12 11:41:00,
2013-02-12 06:46:00,67.6,61.9,30.09,North,0,0.0,0.0,82,0.00,CLR,BKN,0.00,WeatherDisplay:10.37,2013-02-12 11:46:00,
2013-02-12 06:51:00,67.6,62.3,30.09,North,0,0.0,0.0,83,0.00,CLR,BKN,0.00,WeatherDisplay:10.37,2013-02-12 11:51:00,
2013-02-12 06:56:00,67.5,61.8,30.09,North,0,0.0,0.0,82,0.00,CLR,BKN,0.00,WeatherDisplay:10.37,2013-02-12 11:56:00,
2013-02-12 07:01:00,67.5,62.1,30.09,North,0,0.0,0.0,83,0.00,CLR,BKN,0.00,WeatherDisplay:10.37,2013-02-12 12:01:00,
2013-02-12 07:06:00,67.5,62.1,30.09,North,0,0.0,0.0,83,0.00,CLR,BKN,0.00,WeatherDisplay:10.37,2013-02-12 12:06:00,
2013-02-12 07:11:00,67.5,62.1,30.09,North,0,0.0,0.0,83,0.00,CLR,BKN,0.00,WeatherDisplay:10.37,2013-02-12 12:11:00,
2013-02-12 07:16:00,67.5,62.1,30.09,North,0,0.0,0.0,83,0.00,CLR,BKN,0.00,WeatherDisplay:10.37,2013-02-12 12:16:00,
2013-02-12 07:21:00,67.5,62.5,30.09,North,0,0.0,0.0,84,0.00,CLR,BKN,0.00,WeatherDisplay:10.37,2013-02-12 12:21:00,
2013-02-12 07:26:00,67.5,62.5,30.09,North,0,0.0,0.0,84,0.00,CLR,BKN,0.00,WeatherDisplay:10.37,2013-02-12 12:26:00,
2013-02-12 07:31:00,67.6,63.3,30.09,North,0,0.0,0.0,86,0.00,CLR,BKN,0.00,WeatherDisplay:10.37,2013-02-12 12:31:00,
2013-02-12 07:36:00,67.8,63.5,30.09,North,0,0.0,0.0,86,0.00,CLR,BKN,0.00,WeatherDisplay:10.37,2013-02-12 12:36:00,
2013-02-12 07:41:00,68.0,63.7,30.09,North,0,0.0,0.0,86,0.00,CLR,BKN,0.00,WeatherDisplay:10.37,2013-02-12 12:41:00,
2013-02-12 07:46:00,68.2,63.8,30.09,North,0,0.0,0.0,86,0.00,CLR,BKN,0.00,WeatherDisplay:10.37,2013-02-12 12:46:00,
2013-02-12 07:51:00,68.4,64.0,30.09,North,0,0.0,0.0,86,0.00,CLR,BKN,0.00,WeatherDisplay:10.37,2013-02-12 12:51:00,
2013-02-12 07:56:00,68.5,63.8,30.09,North,0,0.0,0.0,85,0.00,CLR,BKN,0.00,WeatherDisplay:10.37,2013-02-12 12:56:00,
2013-02-12 08:01:00,68.7,63.7,30.09,North,0,0.0,0.0,84,0.00,CLR,BKN,0.00,WeatherDisplay:10.37,2013-02-12 13:01:00,
2013-02-12 08:06:00,68.9,62.8,30.09,North,0,0.0,0.0,81,0.00,CLR,BKN,0.00,WeatherDisplay:10.37,2013-02-12 13:06:00,
2013-02-12 08:11:00,69.3,62.8,30.09,North,0,0.0,0.0,80,0.00,CLR,BKN,0.00,WeatherDisplay:10.37,2013-02-12 13:11:00,
2013-02-12 08:16:00,69.4,60.8,30.09,North,0,0.0,0.0,74,0.00,CLR,BKN,0.00,WeatherDisplay:10.37,2013-02-12 13:16:00,
2013-02-12 08:21:00,69.8,60.4,30.09,North,0,0.0,0.0,72,0.00,CLR,BKN,0.00,WeatherDisplay:10.37,2013-02-12 13:21:00,
2013-02-12 08:26:00,70.0,58.9,30.09,North,0,0.0,0.0,68,0.00,CLR,BKN,0.00,WeatherDisplay:10.37,2013-02-12 13:26:00,
2013-02-12 08:31:00,70.5,59.0,30.12,North,0,0.0,0.0,67,0.00,CLR,BKN,0.00,WeatherDisplay:10.37,2013-02-12 13:31:00,
2013-02-12 08:36:00,70.9,58.5,30.12,North,0,0.0,0.0,65,0.00,CLR,BKN,0.00,WeatherDisplay:10.37,2013-02-12 13:36:00,
2013-02-12 08:41:00,71.2,57.5,30.12,North,0,0.0,0.0,62,0.00,CLR,BKN,0.00,WeatherDisplay:10.37,2013-02-12 13:41:00,
2013-02-12 08:46:00,71.6,55.6,30.12,North,0,0.0,0.0,57,0.00,CLR,BKN,0.00,WeatherDisplay:10.37,2013-02-12 13:46:00,
2013-02-12 08:51:00,72.1,56.1,30.12,North,0,0.0,0.0,57,0.00,CLR,BKN,0.00,WeatherDisplay:10.37,2013-02-12 13:51:00,
2013-02-12 08:56:00,72.3,54.2,30.12,North,0,0.0,0.0,53,0.00,CLR,BKN,0.00,WeatherDisplay:10.37,2013-02-12 13:56:00,
2013-02-12 09:01:00,72.9,54.2,30.12,North,0,0.0,0.0,52,0.00,CLR,BKN,0.00,WeatherDisplay:10.37,2013-02-12 14:01:00,
2013-02-12 09:06:00,73.2,53.5,30.12,North,0,0.0,0.0,50,0.00,CLR,BKN,0.00,WeatherDisplay:10.37,2013-02-12 14:06:00,
2013-02-12 09:11:00,73.6,52.1,30.12,North,0,0.0,0.0,47,0.00,CLR,BKN,0.00,WeatherDisplay:10.37,2013-02-12 14:11:00,
2013-02-12 09:16:00,73.8,51.1,30.12,North,0,0.0,0.0,45,0.00,CLR,BKN,0.00,WeatherDisplay:10.37,2013-02-12 14:16:00,
2013-02-12 09:21:00,74.3,51.6,30.12,North,0,0.0,0.0,45,0.00,CLR,BKN,0.00,WeatherDisplay:10.37,2013-02-12 14:21:00,
2013-02-12 09:26:00,74.5,50.5,30.12,North,0,0.0,0.0,43,0.00,CLR,BKN,0.00,WeatherDisplay:10.37,2013-02-12 14:26:00,
2013-02-12 09:31:00,75.0,51.0,30.12,North,0,0.0,0.0,43,0.00,CLR,BKN,0.00,WeatherDisplay:10.37,2013-02-12 14:31:00,
2013-02-12 09:36:00,75.4,50.7,30.12,North,0,0.0,0.0,42,0.00,CLR,BKN,0.00,WeatherDisplay:10.37,2013-02-12 14:36:00,
2013-02-12 09:41:00,75.2,49.2,30.12,North,0,0.0,0.0,40,0.00,CLR,BKN,0.00,WeatherDisplay:10.37,2013-02-12 14:41:00,
2013-02-12 09:46:00,75.9,49.9,30.12,North,0,0.0,0.0,40,0.00,CLR,BKN,0.00,WeatherDisplay:10.37,2013-02-12 14:46:00,
2013-02-12 09:51:00,76.1,48.6,30.12,North,0,0.0,0.0,38,0.00,CLR,BKN,0.00,WeatherDisplay:10.37,2013-02-12 14:51:00,
2013-02-12 09:56:00,76.1,47.9,30.12,North,0,0.0,0.0,37,0.00,CLR,BKN,0.00,WeatherDisplay:10.37,2013-02-12 14:56:00,
2013-02-12 10:01:00,76.3,48.1,30.12,North,0,0.0,0.0,37,0.00,CLR,BKN,0.00,WeatherDisplay:10.37,2013-02-12 15:01:00,
2013-02-12 10:06:00,76.6,46.9,30.12,North,0,0.0,0.0,35,0.00,CLR,BKN,0.00,WeatherDisplay:10.37,2013-02-12 15:06:00,
2013-02-12 10:11:00,77.2,46.6,30.12,North,0,0.0,0.0,34,0.00,CLR,BKN,0.00,WeatherDisplay:10.37,2013-02-12 15:11:00,
2013-02-12 10:16:00,77.0,45.7,30.12,North,0,0.0,0.0,33,0.00,CLR,BKN,0.00,WeatherDisplay:10.37,2013-02-12 15:16:00,
2013-02-12 10:21:00,76.8,45.5,30.12,North,0,0.0,0.0,33,0.00,CLR,BKN,0.00,WeatherDisplay:10.37,2013-02-12 15:21:00,
2013-02-12 10:26:00,76.6,46.2,30.12,North,0,0.0,0.0,34,0.00,CLR,BKN,0.00,WeatherDisplay:10.37,2013-02-12 15:26:00,
2013-02-12 10:31:00,76.8,45.5,30.12,North,0,0.0,0.0,33,0.00,CLR,BKN,0.00,WeatherDisplay:10.37,2013-02-12 15:31:00,
2013-02-12 10:36:00,77.4,46.0,30.12,North,0,0.0,0.0,33,0.00,CLR,BKN,0.00,WeatherDisplay:10.37,2013-02-12 15:36:00,
2013-02-12 10:41:00,77.7,45.5,30.12,North,0,0.0,0.0,32,0.00,CLR,BKN,0.00,WeatherDisplay:10.37,2013-02-12 15:41:00,
2013-02-12 10:47:00,77.4,44.4,30.12,North,0,0.0,0.0,31,0.00,CLR,BKN,0.00,WeatherDisplay:10.37,2013-02-12 15:47:00,
2013-02-12 10:52:00,77.4,44.4,30.12,North,0,0.0,0.0,31,0.00,CLR,BKN,0.00,WeatherDisplay:10.37,2013-02-12 15:52:00,
2013-02-12 10:57:00,77.9,44.8,30.12,North,0,0.0,0.0,31,0.00,CLR,BKN,0.00,WeatherDisplay:10.37,2013-02-12 15:57:00,
2013-02-12 11:02:00,78.6,44.6,30.12,North,0,0.0,0.0,30,0.00,CLR,BKN,0.00,WeatherDisplay:10.37,2013-02-12 16:02:00,
2013-02-12 11:07:00,79.0,44.9,30.12,North,0,0.0,0.0,30,0.00,CLR,BKN,0.00,WeatherDisplay:10.37,2013-02-12 16:07:00,
2013-02-12 11:12:00,79.2,43.2,30.12,North,0,0.0,0.0,28,0.00,CLR,BKN,0.00,WeatherDisplay:10.37,2013-02-12 16:12:00,
2013-02-12 11:17:00,79.5,43.5,30.12,North,0,0.0,0.0,28,0.00,CLR,BKN,0.00,WeatherDisplay:10.37,2013-02-12 16:17:00,
2013-02-12 11:22:00,79.7,42.8,30.12,North,0,0.0,0.0,27,0.00,CLR,BKN,0.00,WeatherDisplay:10.37,2013-02-12 16:22:00,
2013-02-12 11:27:00,79.7,41.8,30.12,North,0,0.0,0.0,26,0.00,CLR,BKN,0.00,WeatherDisplay:10.37,2013-02-12 16:27:00,
2013-02-12 11:32:00,79.5,41.6,30.12,North,0,0.0,0.0,26,0.00,CLR,BKN,0.00,WeatherDisplay:10.37,2013-02-12 16:32:00,
2013-02-12 11:37:00,79.5,41.6,30.12,North,0,0.0,0.0,26,0.00,CLR,BKN,0.00,WeatherDisplay:10.37,2013-02-12 16:37:00,
2013-02-12 11:42:00,79.3,41.5,30.12,North,0,0.0,0.0,26,0.00,CLR,BKN,0.00,WeatherDisplay:10.37,2013-02-12 16:42:00,
2013-02-12 11:47:00,79.9,41.9,30.12,North,0,0.0,0.0,26,0.00,CLR,BKN,0.00,WeatherDisplay:10.37,2013-02-12 16:47:00,
2013-02-12 11:52:00,79.9,40.9,30.12,North,0,0.0,0.0,25,0.00,CLR,BKN,0.00,WeatherDisplay:10.37,2013-02-12 16:52:00,
2013-02-12 11:57:00,79.9,40.9,30.12,North,0,0.0,0.0,25,0.00,CLR,BKN,0.00,WeatherDisplay:10.37,2013-02-12 16:57:00,
2013-02-12 12:02:00,80.6,40.5,30.09,North,0,0.0,0.0,24,0.00,CLR,BKN,0.00,WeatherDisplay:10.37,2013-02-12 17:02:00,
2013-02-12 12:07:00,80.2,40.2,30.09,North,0,0.0,0.0,24,0.00,CLR,BKN,0.00,WeatherDisplay:10.37,2013-02-12 17:07:00,
2013-02-12 12:12:00,80.4,42.4,30.09,North,0,0.0,0.0,26,0.00,CLR,BKN,0.00,WeatherDisplay:10.37,2013-02-12 17:12:00,
2013-02-12 12:17:00,80.1,41.1,30.09,North,0,0.0,0.0,25,0.00,CLR,BKN,0.00,WeatherDisplay:10.37,2013-02-12 17:17:00,
2013-02-12 12:22:00,80.1,40.0,30.09,North,0,0.0,0.0,24,0.00,CLR,BKN,0.00,WeatherDisplay:10.37,2013-02-12 17:22:00,
2013-02-12 12:27:00,79.5,39.6,30.09,North,0,0.0,0.0,24,0.00,CLR,BKN,0.00,WeatherDisplay:10.37,2013-02-12 17:27:00,
2013-02-12 12:32:00,79.9,39.9,30.09,North,0,0.0,0.0,24,0.00,CLR,BKN,0.00,WeatherDisplay:10.37,2013-02-12 17:32:00,
2013-02-12 12:37:00,80.1,41.1,30.09,North,0,0.0,0.0,25,0.00,CLR,BKN,0.00,WeatherDisplay:10.37,2013-02-12 17:37:00,
2013-02-12 12:42:00,80.2,41.2,30.09,North,0,0.0,0.0,25,0.00,CLR,BKN,0.00,WeatherDisplay:10.37,2013-02-12 17:42:00,
2013-02-12 12:47:00,80.1,40.0,30.09,North,0,0.0,0.0,24,0.00,CLR,BKN,0.00,WeatherDisplay:10.37,2013-02-12 17:47:00,
2013-02-12 12:52:00,80.4,40.3,30.09,North,0,0.0,0.0,24,0.00,CLR,BKN,0.00,WeatherDisplay:10.37,2013-02-12 17:52:00,
2013-02-12 12:57:00,80.4,41.4,30.09,North,0,0.0,0.0,25,0.00,CLR,BKN,0.00,WeatherDisplay:10.37,2013-02-12 17:57:00,
2013-02-12 13:02:00,80.2,42.2,30.09,North,0,0.0,0.0,26,0.00,CLR,BKN,0.00,WeatherDisplay:10.37,2013-02-12 18:02:00,
2013-02-12 13:07:00,80.1,43.1,30.09,North,0,0.0,0.0,27,0.00,CLR,BKN,0.00,WeatherDisplay:10.37,2013-02-12 18:07:00,
2013-02-12 13:12:00,80.4,42.4,30.09,North,0,0.0,0.0,26,0.00,CLR,BKN,0.00,WeatherDisplay:10.37,2013-02-12 18:12:00,
2013-02-12 13:17:00,80.6,42.5,30.06,North,0,0.0,0.0,26,0.00,CLR,BKN,0.00,WeatherDisplay:10.37,2013-02-12 18:17:00,
2013-02-12 13:22:00,80.1,43.1,30.06,North,0,0.0,0.0,27,0.00,CLR,BKN,0.00,WeatherDisplay:10.37,2013-02-12 18:22:00,
2013-02-12 13:27:00,81.1,44.0,30.06,North,0,0.0,0.0,27,0.00,CLR,BKN,0.00,WeatherDisplay:10.37,2013-02-12 18:27:00,
2013-02-12 13:32:00,80.2,41.2,30.06,North,0,0.0,0.0,25,0.00,CLR,BKN,0.00,WeatherDisplay:10.37,2013-02-12 18:32:00,
2013-02-12 13:37:00,80.4,41.4,30.06,North,0,0.0,0.0,25,0.00,CLR,BKN,0.00,WeatherDisplay:10.37,2013-02-12 18:37:00,
2013-02-12 13:42:00,80.6,40.5,30.06,North,0,0.0,0.0,24,0.00,CLR,BKN,0.00,WeatherDisplay:10.37,2013-02-12 18:42:00,
2013-02-12 13:47:00,80.8,39.5,30.06,North,0,0.0,0.0,23,0.00,CLR,BKN,0.00,WeatherDisplay:10.37,2013-02-12 18:47:00,
2013-02-12 13:52:00,80.8,39.5,30.06,North,0,0.0,0.0,23,0.00,CLR,BKN,0.00,WeatherDisplay:10.37,2013-02-12 18:52:00,
2013-02-12 13:57:00,81.0,39.7,30.06,North,0,0.0,0.0,23,0.00,CLR,BKN,0.00,WeatherDisplay:10.37,2013-02-12 18:57:00,
2013-02-12 14:02:00,81.3,38.8,30.06,North,0,0.0,0.0,22,0.00,CLR,BKN,0.00,WeatherDisplay:10.37,2013-02-12 19:02:00,
2013-02-12 14:07:00,80.8,39.5,30.06,North,0,0.0,0.0,23,0.00,CLR,BKN,0.00,WeatherDisplay:10.37,2013-02-12 19:07:00,
2013-02-12 14:12:00,80.2,39.1,30.06,North,0,0.0,0.0,23,0.00,CLR,BKN,0.00,WeatherDisplay:10.37,2013-02-12 19:12:00,
2013-02-12 14:17:00,80.2,39.1,30.03,North,0,0.0,0.0,23,0.00,CLR,BKN,0.00,WeatherDisplay:10.37,2013-02-12 19:17:00,
2013-02-12 14:22:00,80.2,40.2,30.03,North,0,0.0,0.0,24,0.00,CLR,BKN,0.00,WeatherDisplay:10.37,2013-02-12 19:22:00,
2013-02-12 14:27:00,80.4,41.4,30.03,North,0,0.0,0.0,25,0.00,CLR,BKN,0.00,WeatherDisplay:10.37,2013-02-12 19:27:00,
2013-02-12 14:32:00,80.2,41.2,30.03,North,0,0.0,0.0,25,0.00,CLR,BKN,0.00,WeatherDisplay:10.37,2013-02-12 19:32:00,
2013-02-12 14:37:00,80.2,41.2,30.03,North,0,0.0,0.0,25,0.00,CLR,BKN,0.00,WeatherDisplay:10.37,2013-02-12 19:37:00,
2013-02-12 14:42:00,80.4,41.4,30.03,North,0,0.0,0.0,25,0.00,CLR,BKN,0.00,WeatherDisplay:10.37,2013-02-12 19:42:00,
2013-02-12 14:47:00,80.2,41.2,30.03,North,0,0.0,0.0,25,0.00,CLR,BKN,0.00,WeatherDisplay:10.37,2013-02-12 19:47:00,
2013-02-12 14:52:00,80.2,41.2,30.03,North,0,0.0,0.0,25,0.00,CLR,BKN,0.00,WeatherDisplay:10.37,2013-02-12 19:52:00,
2013-02-12 14:57:00,80.1,41.1,30.03,North,0,0.0,0.0,25,0.00,CLR,BKN,0.00,WeatherDisplay:10.37,2013-02-12 19:57:00,
2013-02-12 15:02:00,80.2,41.2,30.00,North,0,0.0,0.0,25,0.00,CLR,BKN,0.00,WeatherDisplay:10.37,2013-02-12 20:02:00,
2013-02-12 15:07:00,79.7,40.8,30.00,North,0,0.0,0.0,25,0.00,CLR,BKN,0.00,WeatherDisplay:10.37,2013-02-12 20:07:00,
2013-02-12 15:12:00,79.7,41.8,30.00,North,0,0.0,0.0,26,0.00,CLR,BKN,0.00,WeatherDisplay:10.37,2013-02-12 20:12:00,
2013-02-12 15:17:00,79.7,40.8,30.00,North,0,0.0,0.0,25,0.00,CLR,BKN,0.00,WeatherDisplay:10.37,2013-02-12 20:17:00,
2013-02-12 15:22:00,79.9,41.9,30.00,North,0,0.0,0.0,26,0.00,CLR,BKN,0.00,WeatherDisplay:10.37,2013-02-12 20:22:00,
2013-02-12 15:27:00,79.7,41.8,30.00,North,0,0.0,0.0,26,0.00,CLR,BKN,0.00,WeatherDisplay:10.37,2013-02-12 20:27:00,
2013-02-12 15:32:00,79.9,41.9,30.00,North,0,0.0,0.0,26,0.00,CLR,BKN,0.00,WeatherDisplay:10.37,2013-02-12 20:32:00,
2013-02-12 15:37:00,79.9,41.9,30.00,North,0,0.0,0.0,26,0.00,CLR,BKN,0.00,WeatherDisplay:10.37,2013-02-12 20:37:00,
2013-02-12 15:42:00,79.7,42.8,30.00,North,0,0.0,0.0,27,0.00,CLR,BKN,0.00,WeatherDisplay:10.37,2013-02-12 20:42:00,
2013-02-12 15:47:00,79.7,42.8,30.00,North,0,0.0,0.0,27,0.00,CLR,BKN,0.00,WeatherDisplay:10.37,2013-02-12 20:47:00,
2013-02-12 15:52:00,79.7,42.8,30.00,North,0,0.0,0.0,27,0.00,CLR,BKN,0.00,WeatherDisplay:10.37,2013-02-12 20:52:00,
2013-02-12 15:57:00,79.7,43.7,30.00,North,0,0.0,0.0,28,0.00,CLR,BKN,0.00,WeatherDisplay:10.37,2013-02-12 20:57:00,
2013-02-12 16:02:00,79.9,41.9,30.00,North,0,0.0,0.0,26,0.00,CLR,BKN,0.00,WeatherDisplay:10.37,2013-02-12 21:02:00,
2013-02-12 16:07:00,79.5,42.6,30.00,North,0,0.0,0.0,27,0.00,CLR,BKN,0.00,WeatherDisplay:10.37,2013-02-12 21:07:00,
2013-02-12 16:12:00,78.8,43.8,30.00,North,0,0.0,0.0,29,0.00,CLR,BKN,0.00,WeatherDisplay:10.37,2013-02-12 21:12:00,
2013-02-12 16:17:00,79.3,45.2,30.00,North,0,0.0,0.0,30,0.00,CLR,BKN,0.00,WeatherDisplay:10.37,2013-02-12 21:17:00,
2013-02-12 16:22:00,79.0,43.1,30.00,North,0,0.0,0.0,28,0.00,CLR,BKN,0.00,WeatherDisplay:10.37,2013-02-12 21:22:00,
2013-02-12 16:27:00,79.0,44.0,30.00,North,0,0.0,0.0,29,0.00,CLR,BKN,0.00,WeatherDisplay:10.37,2013-02-12 21:27:00,
2013-02-12 16:32:00,78.6,44.6,30.00,North,0,0.0,0.0,30,0.00,CLR,BKN,0.00,WeatherDisplay:10.37,2013-02-12 21:32:00,
2013-02-12 16:37:00,78.4,44.4,30.00,North,0,0.0,0.0,30,0.00,CLR,BKN,0.00,WeatherDisplay:10.37,2013-02-12 21:37:00,
2013-02-12 16:42:00,78.3,44.3,30.00,North,0,0.0,0.0,30,0.00,CLR,BKN,0.00,WeatherDisplay:10.37,2013-02-12 21:42:00,
2013-02-12 16:47:00,78.1,44.1,30.00,North,0,0.0,0.0,30,0.00,CLR,BKN,0.00,WeatherDisplay:10.37,2013-02-12 21:47:00,
2013-02-12 16:52:00,78.1,45.0,30.00,North,0,0.0,0.0,31,0.00,CLR,BKN,0.00,WeatherDisplay:10.37,2013-02-12 21:52:00,
2013-02-12 16:57:00,77.9,44.8,30.00,North,0,0.0,0.0,31,0.00,CLR,BKN,0.00,WeatherDisplay:10.37,2013-02-12 21:57:00,
2013-02-12 17:02:00,77.5,44.5,30.00,North,0,0.0,0.0,31,0.00,CLR,BKN,0.00,WeatherDisplay:10.37,2013-02-12 22:02:00,
2013-02-12 17:07:00,77.5,44.5,30.00,North,0,0.0,0.0,31,0.00,CLR,BKN,0.00,WeatherDisplay:10.37,2013-02-12 22:07:00,
2013-02-12 17:12:00,77.5,45.3,30.00,North,0,0.0,0.0,32,0.00,CLR,BKN,0.00,WeatherDisplay:10.37,2013-02-12 22:12:00,
2013-02-12 17:17:00,77.4,45.2,30.00,North,0,0.0,0.0,32,0.00,CLR,BKN,0.00,WeatherDisplay:10.37,2013-02-12 22:17:00,
2013-02-12 17:22:00,77.4,45.2,30.00,North,0,0.0,0.0,32,0.00,CLR,BKN,0.00,WeatherDisplay:10.37,2013-02-12 22:22:00,
2013-02-12 17:27:00,77.4,45.2,30.00,North,0,0.0,0.0,32,0.00,CLR,BKN,0.00,WeatherDisplay:10.37,2013-02-12 22:27:00,
2013-02-12 17:32:00,77.2,45.8,30.00,North,0,0.0,0.0,33,0.00,CLR,BKN,0.00,WeatherDisplay:10.37,2013-02-12 22:32:00,
2013-02-12 17:37:00,76.8,46.3,30.00,North,0,0.0,0.0,34,0.00,CLR,BKN,0.00,WeatherDisplay:10.37,2013-02-12 22:37:00,
2013-02-12 17:42:00,76.6,46.2,30.00,North,0,0.0,0.0,34,0.00,CLR,BKN,0.00,WeatherDisplay:10.37,2013-02-12 22:42:00,
2013-02-12 17:47:00,76.5,46.0,30.00,North,0,0.0,0.0,34,0.00,CLR,BKN,0.00,WeatherDisplay:10.37,2013-02-12 22:47:00,
2013-02-12 17:52:00,76.3,46.6,30.00,North,0,0.0,0.0,35,0.00,CLR,BKN,0.00,WeatherDisplay:10.37,2013-02-12 22:52:00,
2013-02-12 17:57:00,76.1,47.2,30.00,North,0,0.0,0.0,36,0.00,CLR,BKN,0.00,WeatherDisplay:10.37,2013-02-12 22:57:00,
2013-02-12 18:02:00,75.7,47.6,30.00,North,0,0.0,0.0,37,0.00,CLR,BKN,0.00,WeatherDisplay:10.37,2013-02-12 23:02:00,
2013-02-12 18:07:00,75.6,48.2,30.00,North,0,0.0,0.0,38,0.00,CLR,BKN,0.00,WeatherDisplay:10.37,2013-02-12 23:07:00,
2013-02-12 18:12:00,75.4,48.7,30.00,North,0,0.0,0.0,39,0.00,CLR,BKN,0.00,WeatherDisplay:10.37,2013-02-12 23:12:00,
2013-02-12 18:17:00,75.2,49.2,30.00,North,0,0.0,0.0,40,0.00,CLR,BKN,0.00,WeatherDisplay:10.37,2013-02-12 23:17:00,
2013-02-12 18:22:00,75.0,50.4,30.00,North,0,0.0,0.0,42,0.00,CLR,BKN,0.00,WeatherDisplay:10.37,2013-02-12 23:22:00,
2013-02-12 18:27:00,74.8,50.2,30.00,North,0,0.0,0.0,42,0.00,CLR,BKN,0.00,WeatherDisplay:10.37,2013-02-12 23:27:00,
2013-02-12 18:32:00,74.7,50.7,30.00,North,0,0.0,0.0,43,0.00,CLR,BKN,0.00,WeatherDisplay:10.37,2013-02-12 23:32:00,
2013-02-12 18:37:00,74.5,50.5,30.00,North,0,0.0,0.0,43,0.00,CLR,BKN,0.00,WeatherDisplay:10.37,2013-02-12 23:37:00,
2013-02-12 18:42:00,74.3,51.0,30.00,North,0,0.0,0.0,44,0.00,CLR,BKN,0.00,WeatherDisplay:10.37,2013-02-12 23:42:00,
2013-02-12 18:47:00,74.3,51.6,30.00,North,0,0.0,0.0,45,0.00,CLR,BKN,0.00,WeatherDisplay:10.37,2013-02-12 23:47:00,
2013-02-12 18:52:00,74.1,51.4,30.00,North,0,0.0,0.0,45,0.00,CLR,BKN,0.00,WeatherDisplay:10.37,2013-02-12 23:52:00,
2013-02-12 18:57:00,74.1,52.0,30.00,North,0,0.0,0.0,46,0.00,CLR,BKN,0.00,WeatherDisplay:10.37,2013-02-12 23:57:00,
2013-02-12 19:02:00,73.9,51.8,30.00,North,0,0.0,0.0,46,0.00,CLR,BKN,0.00,WeatherDisplay:10.37,2013-02-13 00:02:00,
2013-02-12 19:08:00,73.8,52.3,30.00,North,0,0.0,0.0,47,0.00,CLR,BKN,0.00,WeatherDisplay:10.37,2013-02-13 00:08:00,
2013-02-12 19:13:00,73.7,52.2,30.00,North,0,0.0,0.0,47,0.00,CLR,BKN,0.00,WeatherDisplay:10.37,2013-02-13 00:13:00,
2013-02-12 19:18:00,73.6,52.7,30.00,North,0,0.0,0.0,48,0.00,CLR,BKN,0.00,WeatherDisplay:10.37,2013-02-13 00:18:00,
2013-02-12 19:23:00,73.4,53.1,30.00,North,0,0.0,0.0,49,0.00,CLR,BKN,0.00,WeatherDisplay:10.37,2013-02-13 00:23:00,
2013-02-12 19:28:00,73.4,53.6,30.00,North,0,0.0,0.0,50,0.00,CLR,BKN,0.00,WeatherDisplay:10.37,2013-02-13 00:28:00,
2013-02-12 19:33:00,73.2,54.0,30.00,North,0,0.0,0.0,51,0.00,CLR,BKN,0.00,WeatherDisplay:10.37,2013-02-13 00:33:00,
2013-02-12 19:38:00,73.2,54.5,30.00,North,0,0.0,0.0,52,0.00,CLR,BKN,0.00,WeatherDisplay:10.37,2013-02-13 00:38:00,
2013-02-12 19:43:00,73.0,54.9,30.00,North,0,0.0,0.0,53,0.00,CLR,BKN,0.00,WeatherDisplay:10.37,2013-02-13 00:43:00,
2013-02-12 19:48:00,72.9,55.3,30.00,North,0,0.0,0.0,54,0.00,CLR,BKN,0.00,WeatherDisplay:10.37,2013-02-13 00:48:00,
2013-02-12 19:53:00,72.9,55.2,30.00,North,0,0.0,0.0,54,0.00,CLR,BKN,0.00,WeatherDisplay:10.37,2013-02-13 00:53:00,
2013-02-12 19:58:00,72.7,55.6,30.00,North,0,0.0,0.0,55,0.00,CLR,BKN,0.00,WeatherDisplay:10.37,2013-02-13 00:58:00,
2013-02-12 20:03:00,72.7,55.6,30.00,North,0,0.0,0.0,55,0.00,CLR,BKN,0.00,WeatherDisplay:10.37,2013-02-13 01:03:00,
2013-02-12 20:08:00,72.7,56.1,30.00,North,0,0.0,0.0,56,0.00,CLR,BKN,0.00,WeatherDisplay:10.37,2013-02-13 01:08:00,
2013-02-12 20:13:00,72.5,56.4,30.00,North,0,0.0,0.0,57,0.00,CLR,BKN,0.00,WeatherDisplay:10.37,2013-02-13 01:13:00,
2013-02-12 20:18:00,72.5,57.4,30.00,North,0,0.0,0.0,59,0.00,CLR,BKN,0.00,WeatherDisplay:10.37,2013-02-13 01:18:00,
2013-02-12 20:23:00,72.3,57.2,30.00,North,0,0.0,0.0,59,0.00,CLR,BKN,0.00,WeatherDisplay:10.37,2013-02-13 01:23:00,
2013-02-12 20:28:00,72.3,58.1,30.00,North,0,0.0,0.0,61,0.00,CLR,BKN,0.00,WeatherDisplay:10.37,2013-02-13 01:28:00,
2013-02-12 20:33:00,72.3,58.6,30.00,North,0,0.0,0.0,62,0.00,CLR,BKN,0.00,WeatherDisplay:10.37,2013-02-13 01:33:00,
2013-02-12 20:38:00,72.3,59.0,30.00,North,0,0.0,0.0,63,0.00,CLR,BKN,0.00,WeatherDisplay:10.37,2013-02-13 01:38:00,
2013-02-12 20:43:00,72.1,59.3,30.00,North,0,0.0,0.0,64,0.00,CLR,BKN,0.00,WeatherDisplay:10.37,2013-02-13 01:43:00,
2013-02-12 20:48:00,72.1,59.3,30.00,North,0,0.0,0.0,64,0.00,CLR,BKN,0.00,WeatherDisplay:10.37,2013-02-13 01:48:00,
2013-02-12 20:53:00,72.1,59.7,30.00,North,0,0.0,0.0,65,0.00,CLR,BKN,0.00,WeatherDisplay:10.37,2013-02-13 01:53:00,
2013-02-12 20:58:00,72.1,60.2,30.03,North,0,0.0,0.0,66,0.00,CLR,BKN,0.00,WeatherDisplay:10.37,2013-02-13 01:58:00,
2013-02-12 21:03:00,72.0,60.0,30.03,North,0,0.0,0.0,66,0.00,CLR,BKN,0.00,WeatherDisplay:10.37,2013-02-13 02:03:00,
2013-02-12 21:08:00,72.0,60.4,30.03,North,0,0.0,0.0,67,0.00,CLR,BKN,0.00,WeatherDisplay:10.37,2013-02-13 02:08:00,
2013-02-12 21:13:00,72.0,60.8,30.00,North,0,0.0,0.0,68,0.00,CLR,BKN,0.00,WeatherDisplay:10.37,2013-02-13 02:13:00,
2013-02-12 21:18:00,72.0,60.8,30.00,North,0,0.0,0.0,68,0.00,CLR,BKN,0.00,WeatherDisplay:10.37,2013-02-13 02:18:00,
2013-02-12 21:23:00,72.0,61.2,30.00,North,0,0.0,0.0,69,0.00,CLR,BKN,0.00,WeatherDisplay:10.37,2013-02-13 02:23:00,
2013-02-12 21:28:00,72.0,61.2,30.03,North,0,0.0,0.0,69,0.00,CLR,BKN,0.00,WeatherDisplay:10.37,2013-02-13 02:28:00,
2013-02-12 21:33:00,71.8,61.5,30.03,North,0,0.0,0.0,70,0.00,CLR,BKN,0.00,WeatherDisplay:10.37,2013-02-13 02:33:00,
2013-02-12 21:38:00,71.8,61.5,30.03,North,0,0.0,0.0,70,0.00,CLR,BKN,0.00,WeatherDisplay:10.37,2013-02-13 02:38:00,
2013-02-12 21:43:00,71.8,61.9,30.03,North,0,0.0,0.0,71,0.00,CLR,BKN,0.00,WeatherDisplay:10.37,2013-02-13 02:43:00,
2013-02-12 21:48:00,71.8,61.9,30.03,North,0,0.0,0.0,71,0.00,CLR,BKN,0.00,WeatherDisplay:10.37,2013-02-13 02:48:00,
2013-02-12 21:53:00,72.0,63.2,30.03,North,0,0.0,0.0,74,0.00,CLR,BKN,0.00,WeatherDisplay:10.37,2013-02-13 02:53:00,
2013-02-12 21:58:00,71.8,63.4,30.03,North,0,0.0,0.0,75,0.00,CLR,BKN,0.00,WeatherDisplay:10.37,2013-02-13 02:58:00,
2013-02-12 22:03:00,71.8,63.4,30.03,North,0,0.0,0.0,75,0.00,CLR,BKN,0.00,WeatherDisplay:10.37,2013-02-13 03:03:00,
2013-02-12 22:08:00,71.8,63.4,30.03,North,0,0.0,0.0,75,0.00,CLR,BKN,0.00,WeatherDisplay:10.37,2013-02-13 03:08:00,
2013-02-12 22:13:00,71.8,63.4,30.03,North,0,0.0,0.0,75,0.00,CLR,BKN,0.00,WeatherDisplay:10.37,2013-02-13 03:13:00,
2013-02-12 22:18:00,71.8,63.4,30.03,North,0,0.0,0.0,75,0.00,CLR,BKN,0.00,WeatherDisplay:10.37,2013-02-13 03:18:00,
2013-02-12 22:23:00,71.8,63.8,30.03,North,0,0.0,0.0,76,0.00,CLR,BKN,0.00,WeatherDisplay:10.37,2013-02-13 03:23:00,
2013-02-12 22:28:00,72.0,64.0,30.03,North,0,0.0,0.0,76,0.00,CLR,BKN,0.00,WeatherDisplay:10.37,2013-02-13 03:28:00,
2013-02-12 22:33:00,72.0,64.0,30.03,North,0,0.0,0.0,76,0.00,CLR,BKN,0.00,WeatherDisplay:10.37,2013-02-13 03:33:00,
2013-02-12 22:39:00,71.8,63.8,30.03,North,0,0.0,0.0,76,0.00,CLR,BKN,0.00,WeatherDisplay:10.37,2013-02-13 03:39:00,
2013-02-12 22:44:00,72.0,63.2,30.03,North,0,0.0,0.0,74,0.00,CLR,BKN,0.00,WeatherDisplay:10.37,2013-02-13 03:44:00,
2013-02-12 22:49:00,72.0,63.2,30.03,North,0,0.0,0.0,74,0.00,CLR,BKN,0.00,WeatherDisplay:10.37,2013-02-13 03:49:00,
2013-02-12 22:54:00,72.0,63.2,30.03,North,0,0.0,0.0,74,0.00,CLR,BKN,0.00,WeatherDisplay:10.37,2013-02-13 03:54:00,
2013-02-12 22:59:00,72.0,62.8,30.03,North,0,0.0,0.0,73,0.00,CLR,BKN,0.00,WeatherDisplay:10.37,2013-02-13 03:59:00,
2013-02-12 23:04:00,72.0,62.8,30.03,North,0,0.0,0.0,73,0.00,CLR,BKN,0.00,WeatherDisplay:10.37,2013-02-13 04:04:00,
2013-02-12 23:09:00,72.0,62.4,30.03,North,0,0.0,0.0,72,0.00,CLR,BKN,0.00,WeatherDisplay:10.37,2013-02-13 04:09:00,
2013-02-12 23:14:00,72.0,62.0,30.00,North,0,0.0,0.0,71,0.00,CLR,BKN,0.00,WeatherDisplay:10.37,2013-02-13 04:14:00,
2013-02-12 23:19:00,72.0,62.0,30.00,North,0,0.0,0.0,71,0.00,CLR,BKN,0.00,WeatherDisplay:10.37,2013-02-13 04:19:00,
2013-02-12 23:24:00,72.0,62.0,30.00,North,0,0.0,0.0,71,0.00,CLR,BKN,0.00,WeatherDisplay:10.37,2013-02-13 04:24:00,
2013-02-12 23:29:00,71.8,61.5,30.03,North,0,0.0,0.0,70,0.00,CLR,BKN,0.00,WeatherDisplay:10.37,2013-02-13 04:29:00,
2013-02-12 23:34:00,71.8,61.5,30.03,North,0,0.0,0.0,70,0.00,CLR,BKN,0.00,WeatherDisplay:10.37,2013-02-13 04:34:00,
2013-02-12 23:39:00,71.8,61.5,30.03,North,0,0.0,0.0,70,0.00,CLR,BKN,0.00,WeatherDisplay:10.37,2013-02-13 04:39:00,
2013-02-12 23:44:00,71.8,61.9,30.00,North,0,0.0,0.0,71,0.00,CLR,BKN,0.00,WeatherDisplay:10.37,2013-02-13 04:44:00,
2013-02-12 23:49:00,71.8,61.9,30.00,North,0,0.0,0.0,71,0.00,CLR,BKN,0.00,WeatherDisplay:10.37,2013-02-13 04:49:00,
2013-02-12 23:54:00,71.6,61.3,30.00,North,0,0.0,0.0,70,0.00,CLR,BKN,0.00,WeatherDisplay:10.37,2013-02-13 04:54:00,
2013-02-12 23:59:00,71.6,61.3,30.00,North,0,0.0,0.0,70,0.00,CLR,BKN,0.00,WeatherDisplay:10.37,2013-02-13 04:59:00,